

Wyoming Mesonet
Water Resources Data System and State Climate Office
SEO WACNet, UW USACE UMRB, USDA-ARS, BLM
| Wind | Soil | |||||||||||||||||||
| Temp | Precip | Speed | Dir | Gust | Dir | Humidity | Pressure | Solar | Snow | Temperature (Deg F) | Moisture (%) | |||||||||
| Date Time (MST) | (F) | (in) | (mph) | (deg) | (mph) | (deg) | (%) | (Mbars) | (w/m^2) | (in) | 5cm | 10cm | 20cm | 50cm | 1m | 5cm | 10cm | 20cm | 50cm | 1m |
| 2026-08-30 00:00:00 | 55.89 | 0.00 | 6.84 | 126 | 7.83 | 122 | 86.0 | 871.0 | 0.0 | -0.5 | 71.06 | 75.38 | 77.00 | 75.92 | 73.40 | 2.1% | 2.6% | 3.3% | 4.3% | 3.3% |
| 2026-08-30 01:00:00 | 58.50 | 0.00 | 8.79 | 126 | 11.18 | 133 | 80.5 | 871.0 | 0.0 | -0.3 | 69.98 | 74.48 | 76.82 | 75.92 | 73.40 | 2.1% | 2.6% | 3.3% | 4.3% | 3.3% |
| 2026-08-30 02:00:00 | 60.73 | 0.00 | 8.37 | 133 | 13.04 | 141 | 73.4 | 871.0 | 0.0 | -0.2 | 69.26 | 73.94 | 76.46 | 75.74 | 73.40 | 2.1% | 2.6% | 3.3% | 4.3% | 3.3% |
| 2026-08-30 03:00:00 | 60.19 | 0.00 | 4.24 | 139 | 8.69 | 142 | 78.7 | 871.0 | 0.0 | -0.2 | 68.72 | 73.22 | 76.10 | 75.74 | 73.40 | 2.1% | 2.6% | 3.3% | 4.3% | 3.3% |
| 2026-08-30 04:00:00 | 57.96 | 0.00 | 3.89 | 266 | 11.68 | 125 | 81.4 | 871.0 | 0.0 | -0.3 | 68.36 | 72.68 | 75.92 | 75.74 | 73.40 | 2.1% | 2.6% | 3.3% | 4.3% | 3.3% |
| 2026-08-30 05:00:00 | 55.60 | 0.00 | 0.20 | 35 | 4.72 | 341 | 82.4 | 870.0 | 0.0 | -0.4 | 68.00 | 72.32 | 75.56 | 75.74 | 73.40 | 2.1% | 2.6% | 3.3% | 4.3% | 3.3% |
| 2026-08-30 06:00:00 | 54.43 | 0.00 | 2.00 | 194 | 7.95 | 130 | 93.0 | 872.0 | 56.2 | -0.3 | 67.10 | 71.78 | 75.20 | 75.74 | 73.40 | 2.0% | 2.6% | 3.3% | 4.3% | 3.3% |
| 2026-08-30 07:00:00 | 62.04 | 0.00 | 2.88 | 227 | 4.72 | 186 | 70.4 | 872.0 | 248.5 | -0.1 | 66.38 | 71.42 | 75.02 | 75.56 | 73.40 | 2.0% | 2.6% | 3.3% | 4.3% | 3.3% |
| 2026-08-30 08:00:00 | 64.00 | 0.00 | 3.25 | 253 | 5.46 | 201 | 73.5 | 872.0 | 201.3 | -0.1 | 66.74 | 70.88 | 74.66 | 75.56 | 73.40 | 2.1% | 2.6% | 3.3% | 4.3% | 3.3% |
| 2026-08-30 09:00:00 | 65.62 | 0.00 | 3.17 | 211 | 6.71 | 278 | 73.5 | 872.0 | 633.1 | -0.0 | 67.46 | 70.70 | 74.48 | 75.56 | 73.40 | 2.0% | 2.6% | 3.3% | 4.3% | 3.3% |
| 2026-08-30 10:00:00 | 69.06 | 0.00 | 3.26 | 232 | 7.08 | 278 | 56.4 | 872.0 | 189.9 | -0.2 | 69.26 | 70.88 | 74.12 | 75.38 | 73.40 | 2.1% | 2.6% | 3.3% | 4.4% | 3.3% |
| 2026-08-30 11:00:00 | 68.95 | 0.00 | 14.95 | 267 | 33.04 | 253 | 45.2 | 873.0 | 141.8 | -0.3 | 71.24 | 71.42 | 73.94 | 75.38 | 73.40 | 2.1% | 2.6% | 3.3% | 4.4% | 3.3% |
| 2026-08-30 12:00:00 | 71.44 | 0.00 | 5.26 | 335 | 18.39 | 270 | 51.3 | 872.0 | 311.0 | -0.1 | 72.50 | 71.96 | 73.94 | 75.38 | 73.40 | 2.1% | 2.6% | 3.3% | 4.4% | 3.3% |
| 2026-08-30 13:00:00 | 73.13 | 0.00 | 17.69 | 359 | 24.96 | 346 | 42.4 | 872.0 | 849.0 | 0.1 | 74.12 | 72.68 | 73.76 | 75.20 | 73.40 | 2.1% | 2.6% | 3.3% | 4.2% | 3.3% |
| 2026-08-30 14:00:00 | 77.14 | 0.00 | 3.29 | 332 | 19.13 | 351 | 34.6 | 872.0 | 780.1 | 0.0 | 77.36 | 73.58 | 73.76 | 75.20 | 73.40 | 2.2% | 2.6% | 3.3% | 4.4% | 3.3% |
| 2026-08-30 15:00:00 | 78.35 | 0.00 | 4.09 | 223 | 9.44 | 330 | 27.2 | 871.0 | 660.4 | -0.3 | 80.60 | 75.02 | 73.76 | 75.02 | 73.40 | 2.3% | 2.6% | 3.3% | 4.3% | 3.3% |
| 2026-08-30 16:00:00 | 80.08 | 0.00 | 3.00 | 253 | 8.08 | 331 | 25.7 | 871.0 | 506.9 | -0.3 | 83.30 | 76.64 | 73.94 | 75.02 | 73.40 | 2.2% | 2.6% | 3.3% | 4.3% | 3.3% |
| 2026-08-30 17:00:00 | 79.72 | 0.00 | 5.48 | 342 | 7.45 | 333 | 27.3 | 871.0 | 320.9 | -0.3 | 84.38 | 78.26 | 74.30 | 75.02 | 73.40 | 2.3% | 2.8% | 3.3% | 4.4% | 3.3% |
| 2026-08-30 18:00:00 | 76.03 | 0.00 | 5.84 | 353 | 9.57 | 355 | 37.2 | 871.0 | 139.2 | -0.4 | 84.02 | 79.16 | 74.66 | 74.84 | 73.22 | 2.3% | 2.8% | 3.3% | 4.3% | 3.3% |
| 2026-08-30 19:00:00 | 69.26 | 0.00 | 4.28 | 356 | 9.69 | 4 | 46.2 | 870.0 | 0.0 | -0.4 | 82.76 | 79.70 | 75.02 | 74.84 | 73.22 | 2.3% | 2.7% | 3.3% | 4.4% | 3.3% |
| 2026-08-30 20:00:00 | 62.78 | 0.00 | 6.44 | 339 | 7.83 | 342 | 56.0 | 871.0 | 0.0 | -0.4 | 80.96 | 79.52 | 75.56 | 74.84 | 73.22 | 2.2% | 2.8% | 3.3% | 4.4% | 3.3% |
| 2026-08-30 21:00:00 | 63.63 | 0.00 | 1.07 | 308 | 8.32 | 346 | 48.7 | 872.0 | 0.0 | -0.5 | 78.98 | 79.16 | 75.92 | 74.66 | 73.22 | 2.1% | 2.8% | 3.3% | 4.3% | 3.3% |
| 2026-08-30 22:00:00 | 63.82 | 0.00 | 4.12 | 250 | 5.96 | 307 | 44.9 | 872.0 | 0.0 | -0.6 | 77.00 | 78.44 | 76.10 | 74.66 | 73.22 | 2.1% | 2.6% | 3.3% | 4.3% | 3.3% |
| 2026-08-30 23:00:00 | 60.33 | 0.00 | 7.68 | 209 | 8.32 | 204 | 49.0 | 873.0 | 0.0 | -0.5 | 75.20 | 77.72 | 76.28 | 74.66 | 73.04 | 2.1% | 2.7% | 3.3% | 4.4% | 3.3% |